Flag for U.S.A. Weather past 2 weeks in Bridgewater, Massachusetts, U.S.A.

Now
76 °F

Sunny.


Feels Like: 78 °F
Forecast: 64 / 82 °F
Wind: 15 mph from Southwest

Location: Taunton Municipal Airport

Current Time: May 28, 2015 at 4:53:29 PM

Latest Report: May 28, 2015 at 3:52 PM


Visibility: 10 mi

Pressure: 30.11 "Hg

Humidity: 69%

Dew point: 65 °F

Location of BridgewaterLocation

Historic Weather in Bridgewater — Graph

°F

Bridgewater temperature yesterday

Maximum temperature yesterday: 75 °F (at 10:52 AM)
Minimum temperature yesterday: 63 °F (at 3:52 AM)
Average temperature yesterday: 69 °F

Past Weeks' High & Low Weather Summary

 TemperatureHumidityPressure
High83 °F (May 17, 1:52 PM)97% (May 17, 4:00 AM)30.34 "Hg (May 17, 4:00 AM)
Low35 °F (May 14, 4:52 AM)19% (May 14, 3:52 PM)29.71 "Hg (May 20, 1:52 AM)
Average61 °F64%30.11 "Hg
* Reported May 13 3:52 PM — May 28 3:52 PM, Bridgewater, Weather by CustomWeather, © 2015

Note: Actual official high and low records may vary slightly from our data, if they occured in-between our weather recording intervals... More about our weather records

Advertising

Bridgewater weather history for previous 24 hours

 ConditionsComfort  
Time TempWeatherWind HumidityBarometerVisibility
3:52 PM
Thu, May 28
76 °FSunny.15 mph69%30.11 "Hg10 mi
2:52 PM79 °FSunny.13 mph65%30.11 "Hg10 mi
1:52 PM77 °FSunny.12 mph66%30.12 "Hg10 mi
12:52 PM76 °FPassing clouds.10 mph67%30.14 "Hg10 mi
11:52 AM73 °FPartly sunny.10 mph71%30.16 "Hg10 mi
10:52 AM74 °FSunny.9 mph69%30.16 "Hg10 mi
9:52 AM73 °FPassing clouds.7 mph69%30.17 "Hg10 mi
8:52 AM67 °FOvercast.10 mph79%30.18 "Hg10 mi
7:52 AM66 °FOvercast.9 mph81%30.17 "Hg10 mi
6:52 AM65 °FLow clouds.8 mph85%30.16 "Hg10 mi
5:52 AM64 °FLow clouds.7 mph84%30.15 "Hg10 mi
4:52 AM63 °FOvercast.7 mph87%30.14 "Hg10 mi
3:52 AM63 °FOvercast.10 mph87%30.14 "Hg10 mi
2:52 AM65 °FPassing clouds.13 mph81%30.14 "Hg10 mi
1:52 AM65 °FClear.9 mph81%30.14 "Hg10 mi
12:52 AM65 °FClear.14 mph81%30.14 "Hg10 mi
11:52 PM
Wed, May 27
67 °FOvercast.10 mph79%30.16 "Hg10 mi
10:52 PM67 °FOvercast.10 mph79%30.16 "Hg10 mi
9:52 PM66 °FPassing clouds.7 mph81%30.17 "Hg10 mi
8:52 PM67 °FPassing clouds.7 mph76%30.17 "Hg10 mi
7:52 PM68 °FPassing clouds.13 mph76%30.16 "Hg10 mi
6:52 PM69 °FOvercast.12 mph73%30.14 "Hg10 mi
5:52 PM70 °FOvercast.15 mph73%30.13 "Hg10 mi
4:52 PM71 °FOvercast.10 mph73%30.14 "Hg10 mi
Weather by CustomWeather, © 2015

See weather overviewHow to use our weather pages